Year,Month,Day,Hour,Minute,Value (Times are PST for temperature in C)
2008,08,16,00,00,23.80
2008,08,16,00,01,23.70
2008,08,16,00,02,23.70
2008,08,16,00,03,23.70
2008,08,16,00,04,23.60
2008,08,16,00,05,23.60
2008,08,16,00,06,23.60
2008,08,16,00,07,23.60
2008,08,16,00,08,23.60
2008,08,16,00,09,23.50
2008,08,16,00,10,23.50
2008,08,16,00,11,23.50
2008,08,16,00,12,23.40
2008,08,16,00,13,23.40
2008,08,16,00,14,23.40
2008,08,16,00,15,23.40
2008,08,16,00,16,23.40
2008,08,16,00,17,23.30
2008,08,16,00,18,23.30
2008,08,16,00,19,23.30
2008,08,16,00,20,23.30
2008,08,16,00,21,23.20
2008,08,16,00,22,23.20
2008,08,16,00,23,23.20
2008,08,16,00,24,23.10
2008,08,16,00,25,23.10
2008,08,16,00,26,23.10
2008,08,16,00,27,23.00
2008,08,16,00,28,23.00
2008,08,16,00,29,22.90
2008,08,16,00,30,22.90
2008,08,16,00,31,22.90
2008,08,16,00,32,22.80
2008,08,16,00,33,22.80
2008,08,16,00,34,22.80
2008,08,16,00,35,22.80
2008,08,16,00,36,22.80
2008,08,16,00,37,22.80
2008,08,16,00,38,22.80
2008,08,16,00,39,22.80
2008,08,16,00,40,22.80
2008,08,16,00,41,22.80
2008,08,16,00,42,22.80
2008,08,16,00,43,22.80
2008,08,16,00,44,22.80
2008,08,16,00,45,22.80
2008,08,16,00,46,22.80
2008,08,16,00,47,22.80
2008,08,16,00,48,22.80
2008,08,16,00,49,22.80
2008,08,16,00,50,22.80
2008,08,16,00,51,22.80
2008,08,16,00,52,22.80
2008,08,16,00,53,22.80
2008,08,16,00,54,22.80
2008,08,16,00,55,22.80
2008,08,16,00,56,22.80
2008,08,16,00,57,22.80
2008,08,16,00,58,22.70
2008,08,16,00,59,22.70
2008,08,16,01,00,22.70
2008,08,16,01,01,22.70
2008,08,16,01,02,22.70
2008,08,16,01,03,22.70
2008,08,16,01,04,22.70
2008,08,16,01,05,22.70
2008,08,16,01,06,22.70
2008,08,16,01,07,22.60
2008,08,16,01,08,22.60
2008,08,16,01,09,22.60
2008,08,16,01,10,22.50
2008,08,16,01,11,22.50
2008,08,16,01,12,22.40
2008,08,16,01,13,22.40
2008,08,16,01,14,22.40
2008,08,16,01,15,22.40
2008,08,16,01,16,22.40
2008,08,16,01,17,22.30
2008,08,16,01,18,22.30
2008,08,16,01,19,22.30
2008,08,16,01,20,22.30
2008,08,16,01,21,22.30
2008,08,16,01,22,22.30
2008,08,16,01,23,22.30
2008,08,16,01,24,22.30
2008,08,16,01,25,22.40
2008,08,16,01,26,22.40
2008,08,16,01,27,22.40
2008,08,16,01,28,22.40
2008,08,16,01,29,22.40
2008,08,16,01,30,22.40
2008,08,16,01,31,22.40
2008,08,16,01,32,22.40
2008,08,16,01,33,22.50
2008,08,16,01,34,22.50
2008,08,16,01,35,22.40
2008,08,16,01,36,22.40
2008,08,16,01,37,22.40
2008,08,16,01,38,22.50
2008,08,16,01,39,22.50
2008,08,16,01,40,22.50
2008,08,16,01,41,22.40
2008,08,16,01,42,22.40
2008,08,16,01,43,22.40
2008,08,16,01,44,22.40
2008,08,16,01,45,22.40
2008,08,16,01,46,22.40
2008,08,16,01,47,22.40
2008,08,16,01,48,22.30
2008,08,16,01,49,22.30
2008,08,16,01,50,22.40
2008,08,16,01,51,22.30
2008,08,16,01,52,22.30
2008,08,16,01,53,22.30
2008,08,16,01,54,22.30
2008,08,16,01,55,22.30
2008,08,16,01,56,22.30
2008,08,16,01,57,22.30
2008,08,16,01,58,22.20
2008,08,16,01,59,22.20
2008,08,16,02,00,22.20
2008,08,16,02,01,22.20
2008,08,16,02,02,22.20
2008,08,16,02,03,22.20
2008,08,16,02,04,22.20
2008,08,16,02,05,22.20
2008,08,16,02,06,22.10
2008,08,16,02,07,22.10
2008,08,16,02,08,22.10
2008,08,16,02,09,22.10
2008,08,16,02,10,22.10
2008,08,16,02,11,22.10
2008,08,16,02,12,22.10
2008,08,16,02,13,22.10
2008,08,16,02,14,22.00
2008,08,16,02,15,22.00
2008,08,16,02,16,22.00
2008,08,16,02,17,21.90
2008,08,16,02,18,21.90
2008,08,16,02,19,21.80
2008,08,16,02,20,21.80
2008,08,16,02,21,21.80
2008,08,16,02,22,21.80
2008,08,16,02,23,21.80
2008,08,16,02,24,21.70
2008,08,16,02,25,21.70
2008,08,16,02,26,21.60
2008,08,16,02,27,21.60
2008,08,16,02,28,21.60
2008,08,16,02,29,21.50
2008,08,16,02,30,21.50
2008,08,16,02,31,21.50
2008,08,16,02,32,21.40
2008,08,16,02,33,21.40
2008,08,16,02,34,21.40
2008,08,16,02,35,21.40
2008,08,16,02,36,21.40
2008,08,16,02,37,21.40
2008,08,16,02,38,21.30
2008,08,16,02,39,21.30
2008,08,16,02,40,21.30
2008,08,16,02,41,21.30
2008,08,16,02,42,21.30
2008,08,16,02,43,21.30
2008,08,16,02,44,21.20
2008,08,16,02,45,21.20
2008,08,16,02,46,21.20
2008,08,16,02,47,21.20
2008,08,16,02,48,21.20
2008,08,16,02,49,21.20
2008,08,16,02,50,21.20
2008,08,16,02,51,21.20
2008,08,16,02,52,21.20
2008,08,16,02,53,21.10
2008,08,16,02,54,21.10
2008,08,16,02,55,21.10
2008,08,16,02,56,21.10
2008,08,16,02,57,21.10
2008,08,16,02,58,21.10
2008,08,16,02,59,21.10
2008,08,16,03,00,21.10
2008,08,16,03,01,21.10
2008,08,16,03,02,21.10
2008,08,16,03,03,21.10
2008,08,16,03,04,21.10
2008,08,16,03,05,21.10
2008,08,16,03,06,21.10
2008,08,16,03,07,21.20
2008,08,16,03,08,21.20
2008,08,16,03,09,21.20
2008,08,16,03,10,21.20
2008,08,16,03,11,21.20
2008,08,16,03,12,21.10
2008,08,16,03,13,21.10
2008,08,16,03,14,21.10
2008,08,16,03,15,21.10
2008,08,16,03,16,21.10
2008,08,16,03,17,21.00
2008,08,16,03,18,21.00
2008,08,16,03,19,21.00
2008,08,16,03,20,21.00
2008,08,16,03,21,21.00
2008,08,16,03,22,20.90
2008,08,16,03,23,20.90
2008,08,16,03,24,20.90
2008,08,16,03,25,20.90
2008,08,16,03,26,20.90
2008,08,16,03,27,20.90
2008,08,16,03,28,20.90
2008,08,16,03,29,21.00
2008,08,16,03,30,21.00
2008,08,16,03,31,21.10
2008,08,16,03,32,21.10
2008,08,16,03,33,21.10
2008,08,16,03,34,21.10
2008,08,16,03,35,21.10
2008,08,16,03,36,21.10
2008,08,16,03,37,21.10
2008,08,16,03,38,21.10
2008,08,16,03,39,21.10
2008,08,16,03,40,21.20
2008,08,16,03,41,21.20
2008,08,16,03,42,21.20
2008,08,16,03,43,21.20
2008,08,16,03,44,21.10
2008,08,16,03,45,21.10
2008,08,16,03,46,21.10
2008,08,16,03,47,21.10
2008,08,16,03,48,21.10
2008,08,16,03,49,21.10
2008,08,16,03,50,21.10
2008,08,16,03,51,21.10
2008,08,16,03,52,21.10
2008,08,16,03,53,21.10
2008,08,16,03,54,21.10
2008,08,16,03,55,21.10
2008,08,16,03,56,21.10
2008,08,16,03,57,21.20
2008,08,16,03,58,21.20
2008,08,16,03,59,21.20
2008,08,16,04,00,21.20
2008,08,16,04,01,21.10
2008,08,16,04,02,21.10
2008,08,16,04,03,21.10
2008,08,16,04,04,21.10
2008,08,16,04,05,21.10
2008,08,16,04,06,21.10
2008,08,16,04,07,21.10
2008,08,16,04,08,21.00
2008,08,16,04,09,21.00
2008,08,16,04,10,21.00
2008,08,16,04,11,21.00
2008,08,16,04,12,21.00
2008,08,16,04,13,21.00
2008,08,16,04,14,21.00
2008,08,16,04,15,21.10
2008,08,16,04,16,21.10
2008,08,16,04,17,21.10
2008,08,16,04,18,21.10
2008,08,16,04,19,21.10
2008,08,16,04,20,21.10
2008,08,16,04,21,21.00
2008,08,16,04,22,21.00
2008,08,16,04,23,20.90
2008,08,16,04,24,20.90
2008,08,16,04,25,20.90
2008,08,16,04,26,20.80
2008,08,16,04,27,20.80
2008,08,16,04,28,20.80
2008,08,16,04,29,20.70
2008,08,16,04,30,20.70
2008,08,16,04,31,20.70
2008,08,16,04,32,20.60
2008,08,16,04,33,20.60
2008,08,16,04,34,20.50
2008,08,16,04,35,20.50
2008,08,16,04,36,20.40
2008,08,16,04,37,20.40
2008,08,16,04,38,20.40
2008,08,16,04,39,20.40
2008,08,16,04,40,20.40
2008,08,16,04,41,20.50
2008,08,16,04,42,20.60
2008,08,16,04,43,20.60
2008,08,16,04,44,20.70
2008,08,16,04,45,20.70
2008,08,16,04,46,20.70
2008,08,16,04,47,20.80
2008,08,16,04,48,20.80
2008,08,16,04,49,20.80
2008,08,16,04,50,20.80
2008,08,16,04,51,20.80
2008,08,16,04,52,20.80
2008,08,16,04,53,20.70
2008,08,16,04,54,20.70
2008,08,16,04,55,20.70
2008,08,16,04,56,20.70
2008,08,16,04,57,20.70
2008,08,16,04,58,20.70
2008,08,16,04,59,20.70
2008,08,16,05,00,20.60
2008,08,16,05,01,20.60
2008,08,16,05,02,20.60
2008,08,16,05,03,20.60
2008,08,16,05,04,20.60
2008,08,16,05,05,20.60
2008,08,16,05,06,20.60
2008,08,16,05,07,20.60
2008,08,16,05,08,20.60
2008,08,16,05,09,20.60
2008,08,16,05,10,20.60
2008,08,16,05,11,20.60
2008,08,16,05,12,20.50
2008,08,16,05,13,20.50
2008,08,16,05,14,20.50
2008,08,16,05,15,20.40
2008,08,16,05,16,20.40
2008,08,16,05,17,20.40
2008,08,16,05,18,20.40
2008,08,16,05,19,20.40
2008,08,16,05,20,20.40
2008,08,16,05,21,20.40
2008,08,16,05,22,20.40
2008,08,16,05,23,20.40
2008,08,16,05,24,20.40
2008,08,16,05,25,20.40
2008,08,16,05,26,20.40
2008,08,16,05,27,20.40
2008,08,16,05,28,20.40
2008,08,16,05,29,20.40
2008,08,16,05,30,20.40
2008,08,16,05,31,20.40
2008,08,16,05,32,20.40
2008,08,16,05,33,20.40
2008,08,16,05,34,20.40
2008,08,16,05,35,20.40
2008,08,16,05,36,20.40
2008,08,16,05,37,20.40
2008,08,16,05,38,20.40
2008,08,16,05,39,20.40
2008,08,16,05,40,20.40
2008,08,16,05,41,20.40
2008,08,16,05,42,20.40
2008,08,16,05,43,20.40
2008,08,16,05,44,20.40
2008,08,16,05,45,20.30
2008,08,16,05,46,20.30
2008,08,16,05,47,20.30
2008,08,16,05,48,20.30
2008,08,16,05,49,20.30
2008,08,16,05,50,20.20
2008,08,16,05,51,20.20
2008,08,16,05,52,20.20
2008,08,16,05,53,20.20
2008,08,16,05,54,20.10
2008,08,16,05,55,20.10
2008,08,16,05,56,20.10
2008,08,16,05,57,20.10
2008,08,16,05,58,20.10
2008,08,16,05,59,20.20
2008,08,16,06,00,20.20
2008,08,16,06,01,20.20
2008,08,16,06,02,20.20
2008,08,16,06,03,20.20
2008,08,16,06,04,20.20
2008,08,16,06,05,20.20
2008,08,16,06,06,20.20
2008,08,16,06,07,20.20
2008,08,16,06,08,20.10
2008,08,16,06,09,20.10
2008,08,16,06,10,20.10
2008,08,16,06,11,20.10
2008,08,16,06,12,20.10
2008,08,16,06,13,20.10
2008,08,16,06,14,20.00
2008,08,16,06,15,20.00
2008,08,16,06,16,20.00
2008,08,16,06,17,19.90
2008,08,16,06,18,19.90
2008,08,16,06,19,19.90
2008,08,16,06,20,19.90
2008,08,16,06,21,19.90
2008,08,16,06,22,19.90
2008,08,16,06,23,19.80
2008,08,16,06,24,19.80
2008,08,16,06,25,19.80
2008,08,16,06,26,19.80
2008,08,16,06,27,19.80
2008,08,16,06,28,19.80
2008,08,16,06,29,19.80
2008,08,16,06,30,19.80
2008,08,16,06,31,19.80
2008,08,16,06,32,19.80
2008,08,16,06,33,19.80
2008,08,16,06,34,19.80
2008,08,16,06,35,19.90
2008,08,16,06,36,19.90
2008,08,16,06,37,20.00
2008,08,16,06,38,20.00
2008,08,16,06,39,20.00
2008,08,16,06,40,20.10
2008,08,16,06,41,20.10
2008,08,16,06,42,20.20
2008,08,16,06,43,20.20
2008,08,16,06,44,20.30
2008,08,16,06,45,20.30
2008,08,16,06,46,20.40
2008,08,16,06,47,20.40
2008,08,16,06,48,20.40
2008,08,16,06,49,20.50
2008,08,16,06,50,20.50
2008,08,16,06,51,20.50
2008,08,16,06,52,20.60
2008,08,16,06,53,20.60
2008,08,16,06,54,20.60
2008,08,16,06,55,20.60
2008,08,16,06,56,20.60
2008,08,16,06,57,20.60
2008,08,16,06,58,20.70
2008,08,16,06,59,20.70
2008,08,16,07,00,20.70
2008,08,16,07,01,20.70
2008,08,16,07,02,20.80
2008,08,16,07,03,20.80
2008,08,16,07,04,20.80
2008,08,16,07,05,20.80
2008,08,16,07,06,20.90
2008,08,16,07,07,20.90
2008,08,16,07,08,20.90
2008,08,16,07,09,21.00
2008,08,16,07,10,21.00
2008,08,16,07,11,21.10
2008,08,16,07,12,21.10
2008,08,16,07,13,21.20
2008,08,16,07,14,21.20
2008,08,16,07,15,21.30
2008,08,16,07,16,21.30
2008,08,16,07,17,21.40
2008,08,16,07,18,21.40
2008,08,16,07,19,21.50
2008,08,16,07,20,21.50
2008,08,16,07,21,21.60
2008,08,16,07,22,21.60
2008,08,16,07,23,21.60
2008,08,16,07,24,21.60
2008,08,16,07,25,21.60
2008,08,16,07,26,21.60
2008,08,16,07,27,21.60
2008,08,16,07,28,21.60
2008,08,16,07,29,21.60
2008,08,16,07,30,21.60
2008,08,16,07,31,21.60
2008,08,16,07,32,21.60
2008,08,16,07,33,21.60
2008,08,16,07,34,21.60
2008,08,16,07,35,21.60
2008,08,16,07,36,21.60
2008,08,16,07,37,21.60
2008,08,16,07,38,21.60
2008,08,16,07,39,21.60
2008,08,16,07,40,21.70
2008,08,16,07,41,21.70
2008,08,16,07,42,21.80
2008,08,16,07,43,21.80
2008,08,16,07,44,21.80
2008,08,16,07,45,21.80
2008,08,16,07,46,21.80
2008,08,16,07,47,21.80
2008,08,16,07,48,21.80
2008,08,16,07,49,21.80
2008,08,16,07,50,21.90
2008,08,16,07,51,21.90
2008,08,16,07,52,21.90
2008,08,16,07,53,21.80
2008,08,16,07,54,21.80
2008,08,16,07,55,21.80
2008,08,16,07,56,21.80
2008,08,16,07,57,21.80
2008,08,16,07,58,21.80
2008,08,16,07,59,21.80
2008,08,16,08,00,21.90
2008,08,16,08,01,21.90
2008,08,16,08,02,21.90
2008,08,16,08,03,21.90
2008,08,16,08,04,21.90
2008,08,16,08,05,21.90
2008,08,16,08,06,22.00
2008,08,16,08,07,22.00
2008,08,16,08,08,22.00
2008,08,16,08,09,22.10
2008,08,16,08,10,22.20
2008,08,16,08,11,22.20
2008,08,16,08,12,22.20
2008,08,16,08,13,22.20
2008,08,16,08,14,22.20
2008,08,16,08,15,22.20
2008,08,16,08,16,22.20
2008,08,16,08,17,22.20
2008,08,16,08,18,22.20
2008,08,16,08,19,22.20
2008,08,16,08,20,22.20
2008,08,16,08,21,22.10
2008,08,16,08,22,22.00
2008,08,16,08,23,22.00
2008,08,16,08,24,22.00
2008,08,16,08,25,22.00
2008,08,16,08,26,22.00
2008,08,16,08,27,22.10
2008,08,16,08,28,22.10
2008,08,16,08,29,22.10
2008,08,16,08,30,22.20
2008,08,16,08,31,22.30
2008,08,16,08,32,22.30
2008,08,16,08,33,22.30
2008,08,16,08,34,22.40
2008,08,16,08,35,22.40
2008,08,16,08,36,22.40
2008,08,16,08,37,22.50
2008,08,16,08,38,22.50
2008,08,16,08,39,22.40
2008,08,16,08,40,22.40
2008,08,16,08,41,22.40
2008,08,16,08,42,22.50
2008,08,16,08,43,22.50
2008,08,16,08,44,22.40
2008,08,16,08,45,22.30
2008,08,16,08,46,22.30
2008,08,16,08,47,22.30
2008,08,16,08,48,22.30
2008,08,16,08,49,22.30
2008,08,16,08,50,22.30
2008,08,16,08,51,22.30
2008,08,16,08,52,22.20
2008,08,16,08,53,22.20
2008,08,16,08,54,22.20
2008,08,16,08,55,22.20
2008,08,16,08,56,22.30
2008,08,16,08,57,22.30
2008,08,16,08,58,22.20
2008,08,16,08,59,22.20
2008,08,16,09,00,22.10
2008,08,16,09,01,22.00
2008,08,16,09,02,22.00
2008,08,16,09,03,22.00
2008,08,16,09,04,22.00
2008,08,16,09,05,22.10
2008,08,16,09,06,22.20
2008,08,16,09,07,22.30
2008,08,16,09,08,22.40
2008,08,16,09,09,22.40
2008,08,16,09,10,22.40
2008,08,16,09,11,22.40
2008,08,16,09,12,22.40
2008,08,16,09,13,22.40
2008,08,16,09,14,22.50
2008,08,16,09,15,22.50
2008,08,16,09,16,22.60
2008,08,16,09,17,22.70
2008,08,16,09,18,22.70
2008,08,16,09,19,22.80
2008,08,16,09,20,22.80
2008,08,16,09,21,22.80
2008,08,16,09,22,22.80
2008,08,16,09,23,22.80
2008,08,16,09,24,22.80
2008,08,16,09,25,22.80
2008,08,16,09,26,22.80
2008,08,16,09,27,22.80
2008,08,16,09,28,22.80
2008,08,16,09,29,22.80
2008,08,16,09,30,22.80
2008,08,16,09,31,22.80
2008,08,16,09,32,22.80
2008,08,16,09,33,22.90
2008,08,16,09,34,23.00
2008,08,16,09,35,23.00
2008,08,16,09,36,23.10
2008,08,16,09,37,23.20
2008,08,16,09,38,23.20
2008,08,16,09,39,23.20
2008,08,16,09,40,23.20
2008,08,16,09,41,23.10
2008,08,16,09,42,23.10
2008,08,16,09,43,23.00
2008,08,16,09,44,23.00
2008,08,16,09,45,23.00
2008,08,16,09,46,23.00
2008,08,16,09,47,23.00
2008,08,16,09,48,23.10
2008,08,16,09,49,23.20
2008,08,16,09,50,23.20
2008,08,16,09,51,23.10
2008,08,16,09,52,23.10
2008,08,16,09,53,23.10
2008,08,16,09,54,23.10
2008,08,16,09,55,23.20
2008,08,16,09,56,23.20
2008,08,16,09,57,23.20
2008,08,16,09,58,23.20
2008,08,16,09,59,23.30
2008,08,16,10,00,23.30
2008,08,16,10,01,23.30
2008,08,16,10,02,23.40
2008,08,16,10,03,23.50
2008,08,16,10,04,23.50
2008,08,16,10,05,23.60
2008,08,16,10,06,23.70
2008,08,16,10,07,23.80
2008,08,16,10,08,23.80
2008,08,16,10,09,23.70
2008,08,16,10,10,23.80
2008,08,16,10,11,23.80
2008,08,16,10,12,23.90
2008,08,16,10,13,23.90
2008,08,16,10,14,24.00
2008,08,16,10,15,24.10
2008,08,16,10,16,24.10
2008,08,16,10,17,24.10
2008,08,16,10,18,24.10
2008,08,16,10,19,24.10
2008,08,16,10,20,24.10
2008,08,16,10,21,24.10
2008,08,16,10,22,24.10
2008,08,16,10,23,24.10
2008,08,16,10,24,24.10
2008,08,16,10,25,24.20
2008,08,16,10,26,24.20
2008,08,16,10,27,24.10
2008,08,16,10,28,24.10
2008,08,16,10,29,24.10
2008,08,16,10,30,24.00
2008,08,16,10,31,24.00
2008,08,16,10,32,23.90
2008,08,16,10,33,23.70
2008,08,16,10,34,23.60
2008,08,16,10,35,23.50
2008,08,16,10,36,23.50
2008,08,16,10,37,23.50
2008,08,16,10,38,23.60
2008,08,16,10,39,23.60
2008,08,16,10,40,23.60
2008,08,16,10,41,23.60
2008,08,16,10,42,23.60
2008,08,16,10,43,23.70
2008,08,16,10,44,23.80
2008,08,16,10,45,23.90
2008,08,16,10,46,24.00
2008,08,16,10,47,24.10
2008,08,16,10,48,24.10
2008,08,16,10,49,24.10
2008,08,16,10,50,24.10
2008,08,16,10,51,24.20
2008,08,16,10,52,24.20
2008,08,16,10,53,24.30
2008,08,16,10,54,24.20
2008,08,16,10,55,24.20
2008,08,16,10,56,24.10
2008,08,16,10,57,24.10
2008,08,16,10,58,24.10
2008,08,16,10,59,24.10
2008,08,16,11,00,24.10
2008,08,16,11,01,24.20
2008,08,16,11,02,24.10
2008,08,16,11,03,24.10
2008,08,16,11,04,24.00
2008,08,16,11,05,23.90
2008,08,16,11,06,23.80
2008,08,16,11,07,23.80
2008,08,16,11,08,23.70
2008,08,16,11,09,23.70
2008,08,16,11,10,23.70
2008,08,16,11,11,23.70
2008,08,16,11,12,23.70
2008,08,16,11,13,23.70
2008,08,16,11,14,23.80
2008,08,16,11,15,23.90
2008,08,16,11,16,23.90
2008,08,16,11,17,24.00
2008,08,16,11,18,24.10
2008,08,16,11,19,24.20
2008,08,16,11,20,24.20
2008,08,16,11,21,24.30
2008,08,16,11,22,24.30
2008,08,16,11,23,24.40
2008,08,16,11,24,24.40
2008,08,16,11,25,24.40
2008,08,16,11,26,24.50
2008,08,16,11,27,24.50
2008,08,16,11,28,24.50
2008,08,16,11,29,24.60
2008,08,16,11,30,24.70
2008,08,16,11,31,24.70
2008,08,16,11,32,24.80
2008,08,16,11,33,24.80
2008,08,16,11,34,24.70
2008,08,16,11,35,24.70
2008,08,16,11,36,24.70
2008,08,16,11,37,24.60
2008,08,16,11,38,24.60
2008,08,16,11,39,24.50
2008,08,16,11,40,24.50
2008,08,16,11,41,24.50
2008,08,16,11,42,24.50
2008,08,16,11,43,24.40
2008,08,16,11,44,24.40
2008,08,16,11,45,24.30
2008,08,16,11,46,24.30
2008,08,16,11,47,24.30
2008,08,16,11,48,24.30
2008,08,16,11,49,24.40
2008,08,16,11,50,24.40
2008,08,16,11,51,24.40
2008,08,16,11,52,24.50
2008,08,16,11,53,24.50
2008,08,16,11,54,24.40
2008,08,16,11,55,24.40
2008,08,16,11,56,24.40
2008,08,16,11,57,24.40
2008,08,16,11,58,24.40
2008,08,16,11,59,24.40
2008,08,16,12,00,24.40
2008,08,16,12,01,24.40
2008,08,16,12,02,24.40
2008,08,16,12,03,24.50
2008,08,16,12,04,24.50
2008,08,16,12,05,24.60
2008,08,16,12,06,24.60
2008,08,16,12,07,24.60
2008,08,16,12,08,24.60
2008,08,16,12,09,24.60
2008,08,16,12,10,24.60
2008,08,16,12,11,24.70
2008,08,16,12,12,24.60
2008,08,16,12,13,24.60
2008,08,16,12,14,24.60
2008,08,16,12,15,24.60
2008,08,16,12,16,24.60
2008,08,16,12,17,24.70
2008,08,16,12,18,24.70
2008,08,16,12,19,24.80
2008,08,16,12,20,24.90
2008,08,16,12,21,25.00
2008,08,16,12,22,25.00
2008,08,16,12,23,25.10
2008,08,16,12,24,25.10
2008,08,16,12,25,25.10
2008,08,16,12,26,25.10
2008,08,16,12,27,25.10
2008,08,16,12,28,25.20
2008,08,16,12,29,25.20
2008,08,16,12,30,25.30
2008,08,16,12,31,25.30
2008,08,16,12,32,25.30
2008,08,16,12,33,25.30
2008,08,16,12,34,25.40
2008,08,16,12,35,25.40
2008,08,16,12,36,25.40
2008,08,16,12,37,25.50
2008,08,16,12,38,25.50
2008,08,16,12,39,25.60
2008,08,16,12,40,25.50
2008,08,16,12,41,25.50
2008,08,16,12,42,25.50
2008,08,16,12,43,25.60
2008,08,16,12,44,25.60
2008,08,16,12,45,25.60
2008,08,16,12,46,25.70
2008,08,16,12,47,25.70
2008,08,16,12,48,25.70
2008,08,16,12,49,25.60
2008,08,16,12,50,25.50
2008,08,16,12,51,25.60
2008,08,16,12,52,25.60
2008,08,16,12,53,25.60
2008,08,16,12,54,25.60
2008,08,16,12,55,25.70
2008,08,16,12,56,25.80
2008,08,16,12,57,25.90
2008,08,16,12,58,25.90
2008,08,16,12,59,25.90
2008,08,16,13,00,25.90
2008,08,16,13,01,25.90
2008,08,16,13,02,25.90
2008,08,16,13,03,25.90
2008,08,16,13,04,25.90
2008,08,16,13,05,25.90
2008,08,16,13,06,25.80
2008,08,16,13,07,25.90
2008,08,16,13,08,25.90
2008,08,16,13,09,25.90
2008,08,16,13,10,25.90
2008,08,16,13,11,25.90
2008,08,16,13,12,25.90
2008,08,16,13,13,25.90
2008,08,16,13,14,25.90
2008,08,16,13,15,25.90
2008,08,16,13,16,25.90
2008,08,16,13,17,25.90
2008,08,16,13,18,26.00
2008,08,16,13,19,26.00
2008,08,16,13,20,26.10
2008,08,16,13,21,26.10
2008,08,16,13,22,26.10
2008,08,16,13,23,26.10
2008,08,16,13,24,26.20
2008,08,16,13,25,26.20
2008,08,16,13,26,26.30
2008,08,16,13,27,26.30
2008,08,16,13,28,26.30
2008,08,16,13,29,26.30
2008,08,16,13,30,26.30
2008,08,16,13,31,26.30
2008,08,16,13,32,26.30
2008,08,16,13,33,26.30
2008,08,16,13,34,26.30
2008,08,16,13,35,26.20
2008,08,16,13,36,26.10
2008,08,16,13,37,26.00
2008,08,16,13,38,25.90
2008,08,16,13,39,25.90
2008,08,16,13,40,25.90
2008,08,16,13,41,26.00
2008,08,16,13,42,26.00
2008,08,16,13,43,25.90
2008,08,16,13,44,25.90
2008,08,16,13,45,26.00
2008,08,16,13,46,26.10
2008,08,16,13,47,26.10
2008,08,16,13,48,26.10
2008,08,16,13,49,26.10
2008,08,16,13,50,26.10
2008,08,16,13,51,26.10
2008,08,16,13,52,26.10
2008,08,16,13,53,26.10
2008,08,16,13,54,26.20
2008,08,16,13,55,26.30
2008,08,16,13,56,26.50
2008,08,16,13,57,26.60
2008,08,16,13,58,26.60
2008,08,16,13,59,26.70
2008,08,16,14,00,26.70
2008,08,16,14,01,26.70
2008,08,16,14,02,26.70
2008,08,16,14,03,26.70
2008,08,16,14,04,26.60
2008,08,16,14,05,26.60
2008,08,16,14,06,26.50
2008,08,16,14,07,26.50
2008,08,16,14,08,26.50
2008,08,16,14,09,26.40
2008,08,16,14,10,26.40
2008,08,16,14,11,26.40
2008,08,16,14,12,26.40
2008,08,16,14,13,26.30
2008,08,16,14,14,26.30
2008,08,16,14,15,26.30
2008,08,16,14,16,26.30
2008,08,16,14,17,26.30
2008,08,16,14,18,26.20
2008,08,16,14,19,26.20
2008,08,16,14,20,26.20
2008,08,16,14,21,26.20
2008,08,16,14,22,26.20
2008,08,16,14,23,26.30
2008,08,16,14,24,26.30
2008,08,16,14,25,26.40
2008,08,16,14,26,26.50
2008,08,16,14,27,26.70
2008,08,16,14,28,26.70
2008,08,16,14,29,26.80
2008,08,16,14,30,26.80
2008,08,16,14,31,26.80
2008,08,16,14,32,26.80
2008,08,16,14,33,26.80
2008,08,16,14,34,26.80
2008,08,16,14,35,26.90
2008,08,16,14,36,27.00
2008,08,16,14,37,27.10
2008,08,16,14,38,27.10
2008,08,16,14,39,27.20
2008,08,16,14,40,27.20
2008,08,16,14,41,27.10
2008,08,16,14,42,27.00
2008,08,16,14,43,26.90
2008,08,16,14,44,26.80
2008,08,16,14,45,26.80
2008,08,16,14,46,26.80
2008,08,16,14,47,26.80
2008,08,16,14,48,26.80
2008,08,16,14,49,26.90
2008,08,16,14,50,26.90
2008,08,16,14,51,27.00
2008,08,16,14,52,27.00
2008,08,16,14,53,27.00
2008,08,16,14,54,27.00
2008,08,16,14,55,27.10
2008,08,16,14,56,27.10
2008,08,16,14,57,27.10
2008,08,16,14,58,27.10
2008,08,16,14,59,27.10
2008,08,16,15,00,27.10
2008,08,16,15,01,27.10
2008,08,16,15,02,27.10
2008,08,16,15,03,27.10
2008,08,16,15,04,27.10
2008,08,16,15,05,27.10
2008,08,16,15,06,27.10
2008,08,16,15,07,27.10
2008,08,16,15,08,27.20
2008,08,16,15,09,27.20
2008,08,16,15,10,27.20
2008,08,16,15,11,27.20
2008,08,16,15,12,27.20
2008,08,16,15,13,27.20
2008,08,16,15,14,27.30
2008,08,16,15,15,27.30
2008,08,16,15,16,27.40
2008,08,16,15,17,27.40
2008,08,16,15,18,27.40
2008,08,16,15,19,27.40
2008,08,16,15,20,27.40
2008,08,16,15,21,27.40
2008,08,16,15,22,27.40
2008,08,16,15,23,27.40
2008,08,16,15,24,27.40
2008,08,16,15,25,27.50
2008,08,16,15,26,27.60
2008,08,16,15,27,27.70
2008,08,16,15,28,27.80
2008,08,16,15,29,27.90
2008,08,16,15,30,27.90
2008,08,16,15,31,27.90
2008,08,16,15,32,27.90
2008,08,16,15,33,27.80
2008,08,16,15,34,27.80
2008,08,16,15,35,27.80
2008,08,16,15,36,27.70
2008,08,16,15,37,27.60
2008,08,16,15,38,27.60
2008,08,16,15,39,27.60
2008,08,16,15,40,27.70
2008,08,16,15,41,27.70
2008,08,16,15,42,27.80
2008,08,16,15,43,27.80
2008,08,16,15,44,27.80
2008,08,16,15,45,27.80
2008,08,16,15,46,27.90
2008,08,16,15,47,27.90
2008,08,16,15,48,27.90
2008,08,16,15,49,28.00
2008,08,16,15,50,28.00
2008,08,16,15,51,28.00
2008,08,16,15,52,28.00
2008,08,16,15,53,28.00
2008,08,16,15,54,28.00
2008,08,16,15,55,27.90
2008,08,16,15,56,28.00
2008,08,16,15,57,28.00
2008,08,16,15,58,28.10
2008,08,16,15,59,28.10
2008,08,16,16,00,28.20
2008,08,16,16,01,28.10
2008,08,16,16,02,28.10
2008,08,16,16,03,28.10
2008,08,16,16,04,28.10
2008,08,16,16,05,28.20
2008,08,16,16,06,28.20
2008,08,16,16,07,28.20
2008,08,16,16,08,28.20
2008,08,16,16,09,28.20
2008,08,16,16,10,28.20
2008,08,16,16,11,28.10
2008,08,16,16,12,28.10
2008,08,16,16,13,28.10
2008,08,16,16,14,28.10
2008,08,16,16,15,28.10
2008,08,16,16,16,28.20
2008,08,16,16,17,28.10
2008,08,16,16,18,28.20
2008,08,16,16,19,28.20
2008,08,16,16,20,28.20
2008,08,16,16,21,28.30
2008,08,16,16,22,28.30
2008,08,16,16,23,28.30
2008,08,16,16,24,28.30
2008,08,16,16,25,28.30
2008,08,16,16,26,28.30
2008,08,16,16,27,28.30
2008,08,16,16,28,28.20
2008,08,16,16,29,28.20
2008,08,16,16,30,28.20
2008,08,16,16,31,28.30
2008,08,16,16,32,28.30
2008,08,16,16,33,28.30
2008,08,16,16,34,28.30
2008,08,16,16,35,28.40
2008,08,16,16,36,28.50
2008,08,16,16,37,28.60
2008,08,16,16,38,28.70
2008,08,16,16,39,28.70
2008,08,16,16,40,28.70
2008,08,16,16,41,28.70
2008,08,16,16,42,28.70
2008,08,16,16,43,28.70
2008,08,16,16,44,28.70
2008,08,16,16,45,28.70
2008,08,16,16,46,28.70
2008,08,16,16,47,28.70
2008,08,16,16,48,28.80
2008,08,16,16,49,28.80
2008,08,16,16,50,28.80
2008,08,16,16,51,28.80
2008,08,16,16,52,28.90
2008,08,16,16,53,28.90
2008,08,16,16,54,28.80
2008,08,16,16,55,28.90
2008,08,16,16,56,28.90
2008,08,16,16,57,28.90
2008,08,16,16,58,28.90
2008,08,16,16,59,28.90
2008,08,16,17,00,28.90
2008,08,16,17,01,28.90
2008,08,16,17,02,28.90
2008,08,16,17,03,28.90
2008,08,16,17,04,28.90
2008,08,16,17,05,28.90
2008,08,16,17,06,29.00
2008,08,16,17,07,29.00
2008,08,16,17,08,29.00
2008,08,16,17,09,29.10
2008,08,16,17,10,29.10
2008,08,16,17,11,29.10
2008,08,16,17,12,29.20
2008,08,16,17,13,29.20
2008,08,16,17,14,29.20
2008,08,16,17,15,29.20
2008,08,16,17,16,29.20
2008,08,16,17,17,29.20
2008,08,16,17,18,29.30
2008,08,16,17,19,29.30